Probability
0 0 0 0 0 0 0 0 0 0 0 0 0 0 0 0 0 0 0 0 0 1 3 4 3 2 1 0 0 1 2 2 1 0 0 0 0 0 0 0 0 0 0 0
0 0 0 0 0 0 0 0 0 0 0 0 0 0 0 0 0 0 0 0 0 1 3 5 4 3 2 1 0 0 1 1 0 0 0 0 0 0 0 0 0 0 0 0
0 0 0 0 0 0 0 0 0 0 0 0 0 0 0 0 0 0 0 0 0 1 3 6 6 5 3 2 1 0 0 0 1 1 0 0 0 0 0 0 0 0 0 0
0 0 0 0 0 0 0 0 0 0 0 0 0 0 0 0 0 0 0 0 0 1 3 6 8 7 6 5 3 1 0 1 2 2 1 0 0 0 0 0 0 0 0 0
0 0 0 0 0 0 0 0 0 0 0 0 0 0 0 1 1 1 1 1 0 1 3 6 8 9 8 7 5 2 1 1 3 3 1 1 0 0 0 0 0 0 0 0
0 0 0 0 0 0 0 0 0 0 0 0 0 0 0 1 2 2 2 2 1 1 3 6 8 10 10 9 6 4 2 3 3 3 3 2 1 0 0 0 0 0 0 0
0 0 0 0 0 0 0 0 0 0 0 0 0 0 0 0 1 3 3 3 2 1 3 5 7 10 12 11 8 5 3 3 3 3 3 3 2 1 0 0 0 0 0 0
0 0 0 0 0 0 0 0 0 0 0 0 0 0 0 0 1 2 3 3 2 2 3 6 8 10 12 12 9 6 4 3 3 3 3 3 2 1 0 0 0 0 0 0
0 0 0 0 0 0 0 0 0 0 0 0 0 0 0 0 1 2 3 3 2 3 6 9 11 12 12 11 8 6 5 4 3 3 3 3 2 1 0 0 0 0 0 0
0 0 0 0 0 0 0 0 0 0 0 0 0 0 0 0 0 1 1 2 2 4 8 12 14 14 12 8 6 5 4 3 3 3 3 2 1 0 0 0 0 0 0 0
0 0 0 0 0 0 0 0 0 0 0 0 0 0 0 0 0 0 0 1 1 2 6 11 13 13 10 6 4 3 3 3 3 3 2 1 0 0 1 1 0 0 0 0
0 0 0 0 0 0 0 0 0 0 0 0 0 0 0 0 0 0 1 1 1 2 6 10 11 10 7 4 3 3 3 3 3 3 2 1 0 1 2 2 1 0 0 0
0 0 0 0 0 0 0 0 0 0 0 0 0 0 0 0 0 0 1 1 1 2 8 11 10 7 4 3 3 3 3 3 3 3 3 2 1 2 3 2 1 0 0 0
0 0 0 0 0 0 0 0 0 0 0 0 0 0 0 0 0 0 0 0 0 2 7 10 9 6 4 3 2 1 2 3 4 3 3 1 1 1 2 1 0 0 0 0
0 0 0 0 0 0 0 0 0 0 0 0 0 0 0 0 0 0 0 1 1 1 4 8 8 6 4 3 1 1 2 4 4 3 2 1 1 1 1 0 0 0 0 0
0 0 0 0 0 0 0 0 0 0 0 0 0 0 0 0 0 0 1 2 2 2 3 5 5 5 4 2 1 0 1 3 3 2 2 2 2 1 0 0 0 0 0 0
0 0 0 0 0 0 0 0 0 0 0 0 0 0 0 0 0 0 1 2 2 2 2 3 3 4 3 1 0 0 0 1 2 1 1 2 2 1 0 0 0 0 0 0
0 0 0 0 0 0 0 0 0 0 0 0 0 0 0 0 0 0 0 1 1 1 1 2 3 3 2 1 0 0 0 1 2 1 1 1 1 0 0 0 0 0 0 0
0 0 0 0 0 0 0 0 0 0 0 0 0 0 0 0 0 0 0 0 0 0 1 2 3 3 1 0 0 0 0 0 1 1 0 0 0 0 0 1 0 0 0 0
0 0 0 0 0 0 0 0 0 0 0 0 0 0 0 0 0 0 0 0 0 0 1 3 3 2 1 0 0 0 0 0 0 0 0 0 0 0 0 0 0 0 0 0
0 0 0 0 0 0 0 0 0 0 0 0 0 0 0 0 0 0 0 0 0 0 1 2 3 2 1 0 0 0 0 0 0 0 0 0 0 0 0 0 0 0 0 0
0 0 0 0 0 0 0 0 0 0 0 0 0 0 0 0 0 0 0 0 1 1 1 2 3 3 1 0 0 0 0 0 1 1 1 1 1 0 0 0 0 0 0 0
0 0 0 0 0 0 0 0 0 0 0 0 0 0 0 0 0 0 0 1 2 2 1 2 3 3 2 1 0 0 0 1 2 2 2 2 2 1 1 0 0 0 0 0
0 0 0 0 0 0 0 0 0 0 0 0 0 0 0 0 0 0 0 1 2 2 1 1 3 3 3 1 1 0 0 2 3 3 3 3 2 2 1 0 0 0 0 0
0 0 0 0 0 0 0 0 0 0 0 0 0 0 0 0 0 0 1 1 2 2 0 1 2 3 3 2 2 1 0 1 3 3 2 2 1 1 1 0 0 0 0 0
0 0 0 0 0 0 0 0 0 0 0 0 0 0 0 0 0 1 2 2 3 2 1 0 1 3 3 2 2 1 0 1 2 3 2 1 0 0 0 0 0 0 0 0
Wind_Speed
6 5 5 6 7 7 3 2 1 3 5 5 6 6 7 7 7 7 8 9 9 9 8 7 7 7 7 6 7 6 5 4 3 2 2 2 2 2 2 2 3 3 4 5
4 6 5 5 4 4 4 4 4 4 5 4 5 6 7 8 9 8 8 8 9 10 10 8 7 6 7 6 6 6 5 4 4 2 2 2 2 2 2 2 3 3 4 4
6 4 4 5 4 5 5 5 5 4 4 4 4 5 7 8 8 7 7 7 7 10 11 10 9 8 7 6 6 6 6 6 5 4 3 2 2 1 2 2 2 3 3 4
4 5 4 5 6 5 4 4 5 6 6 4 6 4 7 9 10 10 8 8 8 8 10 9 9 8 8 7 6 7 6 6 5 5 3 3 2 2 2 2 1 2 3 3
4 5 6 6 5 4 4 4 5 6 5 4 7 5 6 10 11 11 10 9 9 9 10 10 9 8 8 6 5 6 6 5 5 5 3 2 2 2 2 2 2 2 2 2
5 5 5 5 4 4 3 3 5 6 5 6 8 6 5 8 11 12 11 11 10 9 10 10 9 8 8 7 5 5 5 5 4 4 4 4 3 3 3 2 1 2 1 1
7 7 6 6 6 6 5 3 2 4 4 5 7 6 5 8 11 12 12 11 12 11 10 10 10 9 8 8 7 6 6 5 4 4 4 4 3 3 3 2 1 1 2 1
5 6 8 8 7 6 8 7 3 3 3 3 6 5 4 7 9 11 11 10 10 11 10 10 10 10 9 9 8 7 7 6 4 3 3 4 3 2 2 2 2 1 2 2
3 3 6 7 6 6 6 7 8 6 6 4 4 4 5 6 8 10 11 11 9 10 10 10 10 10 9 9 8 7 8 7 5 4 3 3 3 2 2 1 2 2 2 2
3 2 5 6 6 8 7 6 4 3 3 2 3 6 6 9 10 11 12 11 9 10 10 10 9 10 9 9 8 7 7 7 5 4 4 3 3 2 2 3 3 2 3 3
5 4 5 7 8 8 8 8 5 4 3 1 1 0 3 8 9 10 11 11 10 10 11 10 9 8 8 8 8 7 7 6 5 4 4 4 3 2 3 3 3 3 2 2
4 3 5 8 7 7 7 8 6 4 4 3 2 1 3 5 7 8 10 10 10 10 10 10 10 9 8 8 8 8 7 6 5 4 4 4 4 3 4 3 3 3 3 3
2 3 4 3 4 7 8 8 7 5 4 4 2 2 4 6 8 8 9 9 9 10 10 10 10 9 9 8 8 7 7 7 6 5 4 4 3 3 4 4 3 3 4 3
3 5 4 4 4 5 7 8 8 7 5 5 3 3 4 5 6 7 8 9 9 10 10 10 9 9 9 8 8 7 7 7 7 5 5 4 4 4 4 4 3 3 3 3
5 7 7 8 7 8 7 7 8 9 8 6 3 2 4 4 5 7 9 10 10 10 11 11 10 9 9 9 8 7 7 7 7 6 5 5 5 5 5 4 3 4 3 4
7 8 8 9 8 8 9 9 9 9 8 8 6 4 3 4 4 5 9 10 10 10 12 12 11 10 10 9 9 8 7 7 7 7 5 5 6 5 5 4 4 4 3 4
8 8 7 7 8 7 9 8 9 8 7 6 6 3 3 5 5 6 8 10 10 10 10 11 11 11 10 10 10 9 8 8 8 7 6 6 6 5 5 5 4 4 3 4
8 8 5 6 7 7 4 3 3 5 5 5 3 3 3 4 4 4 5 8 9 10 10 9 9 9 9 9 9 9 8 8 8 7 7 6 6 6 5 5 4 3 3 3
8 6 4 4 6 6 4 3 2 3 2 1 2 3 4 5 4 4 5 7 8 9 9 8 8 9 9 10 10 9 9 8 8 7 7 7 7 6 5 5 4 3 3 3
6 6 5 5 5 4 1 2 2 2 1 1 2 3 3 5 3 3 5 7 7 8 7 8 8 8 9 9 10 10 9 8 8 8 7 7 7 7 6 5 4 3 3 3
7 7 8 7 6 4 2 2 1 1 2 3 3 3 3 3 2 4 6 7 7 7 7 7 8 7 8 9 10 9 9 8 7 7 7 7 6 6 6 5 4 4 3 3
5 5 6 6 6 2 3 2 3 4 4 4 5 3 2 2 3 6 6 7 7 7 7 7 7 7 7 8 9 9 8 7 7 7 7 7 6 6 6 5 4 4 4 3
4 2 1 1 1 2 3 4 5 5 5 5 4 4 2 2 3 6 6 6 7 8 7 6 7 7 6 7 8 9 8 8 8 8 7 6 6 5 5 5 4 3 3 2
1 0 1 1 2 2 3 5 5 5 5 5 4 3 2 2 3 5 6 6 6 6 7 6 7 7 6 6 6 7 8 8 8 8 7 6 6 6 5 4 3 3 3 2
2 2 2 2 0 2 4 5 5 4 4 4 4 4 3 3 2 4 5 6 6 6 6 6 7 7 6 7 7 7 8 8 8 7 6 6 5 5 5 4 2 3 2 4
3 3 2 1 2 2 2 4 4 4 4 4 4 3 3 3 3 4 4 5 5 5 6 6 7 7 7 7 7 7 7 7 7 6 6 5 4 4 4 4 3 2 3 4
Wind_Direction
201 217 225 220 227 240 238 208 179 190 170 167 176 171 163 178 197 185 180 176 169 158 150 141 143 141 134 130 128 130 133 129 118 107 103 97 89 70 59 66 52 38 35 31
199 228 230 216 213 243 234 191 190 185 178 183 181 184 179 191 204 198 186 182 169 157 154 148 149 145 141 135 133 134 132 128 113 102 104 105 96 94 78 54 48 38 43 29
210 212 208 208 208 226 217 219 205 188 174 197 189 202 202 205 204 196 194 189 176 163 159 157 157 152 146 147 148 143 142 133 125 118 95 93 80 72 80 69 46 37 46 39
216 221 213 219 220 226 229 211 207 206 200 213 212 216 210 198 193 194 196 188 175 164 159 156 155 156 154 153 152 147 144 136 136 134 126 131 123 102 96 98 91 63 56 49
211 205 212 220 222 224 225 197 210 223 231 241 231 230 206 192 192 189 188 187 172 168 163 161 158 156 152 147 143 143 138 134 133 127 131 125 102 104 95 98 93 84 71 62
231 217 225 225 214 218 202 214 235 239 245 245 229 222 206 194 191 182 181 181 173 170 164 162 156 150 144 140 139 135 133 126 129 139 142 118 108 106 100 96 96 99 93 65
224 214 204 214 206 202 201 205 235 217 217 234 217 213 207 184 183 176 174 176 172 169 167 162 156 152 148 149 150 147 137 138 149 153 142 135 137 136 125 128 121 109 107 77
221 213 197 208 220 207 206 211 225 249 231 231 196 202 171 168 170 163 162 168 169 166 164 160 156 152 153 154 157 154 150 148 155 156 143 138 142 130 119 131 124 96 103 102
245 219 189 204 230 231 217 223 233 264 278 255 192 154 132 148 153 155 157 160 169 165 157 157 156 154 155 157 159 156 150 151 160 153 142 131 122 107 109 102 91 81 81 87
257 242 197 190 221 231 233 246 249 251 283 268 215 190 172 172 169 165 165 166 167 161 159 157 157 158 158 157 158 155 153 153 156 159 154 129 116 111 91 74 73 71 78 70
250 239 204 196 217 225 214 229 236 238 238 270 281 288 132 169 168 168 168 167 168 162 160 158 157 157 152 150 152 154 155 153 156 157 136 130 127 120 107 87 87 83 81 90
228 252 238 220 224 236 239 246 245 257 271 234 243 243 128 150 157 166 167 167 165 158 155 155 155 155 154 157 159 161 162 156 154 147 138 131 130 132 120 110 104 102 89 74
277 250 262 246 223 218 229 238 248 256 276 278 265 181 156 162 158 162 162 164 160 156 153 154 156 160 159 160 160 161 156 150 145 141 139 139 140 121 109 103 92 86 91 82
280 263 250 238 264 259 233 232 235 243 249 267 257 190 176 176 164 157 155 158 159 159 154 153 156 158 157 158 158 158 152 149 146 146 150 143 134 125 113 99 91 79 79 81
240 261 267 263 251 259 256 245 237 241 249 260 273 225 215 182 180 163 155 153 158 160 158 160 163 161 158 158 158 155 152 152 150 150 150 147 134 122 114 110 105 90 74 77
237 265 272 269 260 254 253 241 237 240 250 258 267 251 216 174 165 167 161 158 159 163 162 164 167 160 162 162 159 155 157 157 150 147 142 126 120 114 114 117 109 97 83 75
236 250 272 281 281 270 257 246 234 231 239 248 251 234 166 158 165 175 167 163 162 162 161 165 168 164 167 167 162 159 160 151 147 146 138 132 128 127 130 128 112 112 105 89
246 255 259 269 268 255 251 268 249 230 231 237 221 158 153 157 158 161 161 161 163 161 161 165 164 159 160 158 155 152 148 148 148 145 140 140 136 136 133 127 127 128 119 112
242 246 258 261 266 262 254 249 225 226 228 237 179 148 153 160 146 148 160 162 161 160 159 159 161 158 158 155 154 152 151 150 149 147 147 147 144 141 140 139 140 133 125 123
230 236 245 256 264 271 328 8 355 256 231 15 106 136 145 142 149 163 152 144 143 143 147 153 157 159 156 153 152 152 153 152 155 154 152 149 146 146 148 147 142 136 132 139
202 221 233 250 257 268 336 324 308 278 38 25 49 106 138 154 139 130 133 133 135 138 141 143 149 151 153 150 149 153 154 158 155 146 143 143 143 146 144 141 141 141 138 139
225 220 226 235 242 239 28 22 44 22 27 31 34 43 99 122 113 119 128 136 134 129 134 139 139 140 144 148 150 151 156 151 142 141 143 144 146 149 147 140 144 146 146 152
229 235 276 300 67 57 58 56 45 16 9 21 22 24 50 98 113 126 133 133 135 136 137 138 139 139 143 147 150 152 147 140 139 141 144 146 147 146 145 146 150 146 144 149
263 77 246 244 141 119 72 54 40 24 14 16 14 27 52 98 112 129 137 139 137 138 142 139 139 144 148 147 141 139 137 139 142 148 152 154 153 149 144 144 150 148 155 160
323 307 273 265 266 85 56 41 29 24 21 19 22 34 50 82 103 126 136 138 140 140 141 145 150 150 149 143 139 140 144 147 152 155 157 156 152 150 145 138 143 156 164 171
302 294 275 297 334 336 52 38 17 18 18 15 22 35 62 80 102 117 124 126 132 141 147 149 145 148 151 149 148 148 150 154 157 158 159 155 152 148 147 147 134 103 156 151